Location: Bergnershof
(48.9468°N, 10.9431°E)
Time: 22:10:22
(UTC+00:00)

Meteor 1-5 Rocket - Pass Details

Date: 03 March 2021
Orbit: 790 x 914 km, 81.2° (Epoch: 13 April)

Event Time Altitude Azimuth Distance (km) Brightness Sun altitude
Rises 18:31:03 0° 180° (S) 3,288 7.2 -15.2°
Reaches altitude 10° 18:33:24 10° 177° (S) 2,373 6.4 -15.6°
Maximum altitude 18:38:41 64° 97° (E) 903 4.1 -16.5°
Drops below altitude 10° 18:44:09 10° 17° (NNE) 2,458 6.5 -17.4°
Sets 18:46:38 0° 15° (NNE) 3,417 7.3 -17.8°
